Hourly Weather Kistenevo

Today, 25 July, Sunday

Time Temperature Precipitation Wind Pressure Humidity
00:00 +14°C° 0 mm 1 mps 748 mmHg 67%
01:00 +14°C° 0 mm 1 mps 749 mmHg 69%
02:00 +14°C° 0 mm 1 mps 749 mmHg 70%
03:00 +13°C° 0 mm 1 mps 749 mmHg 73%
04:00 +13°C° 0 mm 1 mps 749 mmHg 72%
05:00 +13°C° 0 mm 0 mps 750 mmHg 70%
06:00 +13°C° 0 mm 0 mps 750 mmHg 69%
07:00 +15°C° 0 mm 0 mps 750 mmHg 62%
08:00 +17°C° 0 mm 0 mps 751 mmHg 55%
09:00 +21°C° 0 mm 1 mps 751 mmHg 48%
10:00 +22°C° 0 mm 1 mps 751 mmHg 44%
11:00 +23°C° 0 mm 1 mps 751 mmHg 40%
12:00 +23°C° 0 mm 2 mps 751 mmHg 36%
13:00 +23°C° 0 mm 2 mps 751 mmHg 35%
14:00 +24°C° 0 mm 2 mps 751 mmHg 35%
15:00 +24°C° 0 mm 2 mps 751 mmHg 35%
16:00 +23°C° 0 mm 2 mps 751 mmHg 37%
17:00 +23°C° 0 mm 2 mps 751 mmHg 39%
18:00 +23°C° 0 mm 1 mps 752 mmHg 41%
19:00 +21°C° 0 mm 1 mps 752 mmHg 45%
20:00 +19°C° 0 mm 1 mps 752 mmHg 50%
21:00 +18°C° 0 mm 1 mps 752 mmHg 54%
22:00 +16°C° 0 mm 1 mps 752 mmHg 56%
23:00 +15°C° 0 mm 1 mps 752 mmHg 57%

Tomorrow, 26 July, Monday

Time Temperature Precipitation Wind Pressure Humidity
00:00 +15°C° 0 mm 1 mps 752 mmHg 59%
01:00 +15°C° 0 mm 1 mps 753 mmHg 59%
02:00 +15°C° 0 mm 1 mps 753 mmHg 59%
03:00 +14°C° 0 mm 1 mps 753 mmHg 60%
04:00 +15°C° 0 mm 1 mps 753 mmHg 59%
05:00 +16°C° 0 mm 1 mps 753 mmHg 59%
06:00 +18°C° 0 mm 1 mps 753 mmHg 58%
07:00 +19°C° 0 mm 1 mps 753 mmHg 54%
08:00 +21°C° 0 mm 1 mps 753 mmHg 49%
09:00 +22°C° 0 mm 1 mps 753 mmHg 45%
10:00 +24°C° 0 mm 1 mps 753 mmHg 41%
11:00 +25°C° 0 mm 1 mps 753 mmHg 37%
12:00 +26°C° 0 mm 2 mps 753 mmHg 33%
13:00 +26°C° 0 mm 2 mps 753 mmHg 34%
14:00 +26°C° 0 mm 2 mps 753 mmHg 35%
15:00 +26°C° 0 mm 2 mps 753 mmHg 35%
16:00 +26°C° 0 mm 2 mps 753 mmHg 37%
17:00 +26°C° 0 mm 2 mps 753 mmHg 38%
18:00 +26°C° 0 mm 2 mps 752 mmHg 39%
19:00 +23°C° 0 mm 2 mps 752 mmHg 45%
20:00 +21°C° 0 mm 1 mps 752 mmHg 51%
21:00 +19°C° 0 mm 1 mps 753 mmHg 57%
22:00 +18°C° 0 mm 1 mps 753 mmHg 58%
23:00 +18°C° 0 mm 1 mps 753 mmHg 58%

Day after tomorrow, 27 July, Tuesday

Time Temperature Precipitation Wind Pressure Humidity
00:00 +16°C° 0 mm 1 mps 753 mmHg 59%
01:00 +16°C° 0 mm 1 mps 753 mmHg 60%
02:00 +16°C° 0 mm 1 mps 753 mmHg 60%
03:00 +16°C° 0 mm 2 mps 752 mmHg 61%
04:00 +16°C° 0 mm 2 mps 752 mmHg 60%
05:00 +17°C° 0 mm 2 mps 752 mmHg 59%
06:00 +18°C° 0 mm 2 mps 752 mmHg 58%
07:00 +19°C° 0 mm 2 mps 752 mmHg 55%
08:00 +20°C° 0 mm 2 mps 752 mmHg 53%
09:00 +23°C° 0 mm 2 mps 752 mmHg 51%
10:00 +24°C° 0 mm 2 mps 752 mmHg 47%
11:00 +26°C° 0 mm 2 mps 752 mmHg 43%
12:00 +28°C° 0 mm 2 mps 751 mmHg 40%
13:00 +28°C° 0 mm 2 mps 751 mmHg 40%
14:00 +27°C° 0 mm 2 mps 751 mmHg 41%
15:00 +27°C° 0 mm 2 mps 751 mmHg 42%
16:00 +27°C° 0 mm 2 mps 750 mmHg 42%
17:00 +27°C° 0 mm 1 mps 750 mmHg 43%
18:00 +27°C° 0 mm 1 mps 750 mmHg 44%
19:00 +25°C° 0 mm 1 mps 750 mmHg 47%
20:00 +23°C° 0 mm 1 mps 750 mmHg 51%
21:00 +22°C° 0 mm 1 mps 750 mmHg 55%
22:00 +20°C° 0 mm 2 mps 750 mmHg 57%
23:00 +20°C° 0 mm 2 mps 750 mmHg 60%

28 July, Wednesday

Time Temperature Precipitation Wind Pressure Humidity
00:00 +19°C° 0 mm 2 mps 750 mmHg 62%
01:00 +19°C° 0 mm 2 mps 750 mmHg 66%
02:00 +19°C° 0 mm 1 mps 750 mmHg 69%
03:00 +18°C° 0 mm 1 mps 750 mmHg 73%
04:00 +18°C° 0 mm 1 mps 750 mmHg 72%
05:00 +19°C° 0 mm 1 mps 750 mmHg 71%
06:00 +20°C° 0 mm 1 mps 749 mmHg 70%
07:00 +22°C° 0 mm 1 mps 749 mmHg 62%
08:00 +24°C° 0 mm 2 mps 749 mmHg 55%
09:00 +26°C° 0 mm 2 mps 749 mmHg 48%
10:00 +28°C° 0 mm 2 mps 749 mmHg 43%
11:00 +29°C° 0 mm 3 mps 748 mmHg 38%
12:00 +30°C° 0 mm 3 mps 748 mmHg 34%
13:00 +30°C° 0 mm 3 mps 747 mmHg 34%
14:00 +30°C° 0 mm 3 mps 747 mmHg 34%
15:00 +30°C° 0 mm 4 mps 746 mmHg 34%
16:00 +28°C° 0 mm 3 mps 746 mmHg 40%
17:00 +27°C° 0 mm 3 mps 746 mmHg 47%
18:00 +26°C° 0 mm 3 mps 745 mmHg 53%
19:00 +24°C° 0.8 mm 3 mps 745 mmHg 66%
20:00 +20°C° 0.8 mm 3 mps 745 mmHg 80%
21:00 +18°C° 0.8 mm 2 mps 745 mmHg 93%
22:00 +18°C° 0.6 mm 2 mps 745 mmHg 93%
23:00 +18°C° 0.6 mm 2 mps 744 mmHg 94%

29 July, Thursday

Time Temperature Precipitation Wind Pressure Humidity
00:00 +17°C° 0.6 mm 3 mps 744 mmHg 94%
01:00 +18°C° 0.1 mm 3 mps 743 mmHg 94%
02:00 +18°C° 0.1 mm 3 mps 742 mmHg 94%
03:00 +18°C° 0.1 mm 3 mps 742 mmHg 94%
04:00 +18°C° 0.2 mm 3 mps 742 mmHg 94%
05:00 +18°C° 0.2 mm 3 mps 741 mmHg 94%
06:00 +18°C° 0.2 mm 3 mps 741 mmHg 94%
07:00 +19°C° 0.2 mm 3 mps 741 mmHg 93%
08:00 +19°C° 0.2 mm 3 mps 741 mmHg 92%
09:00 +20°C° 0.2 mm 3 mps 740 mmHg 91%
10:00 +20°C° 0.2 mm 3 mps 740 mmHg 90%
11:00 +20°C° 0.2 mm 3 mps 741 mmHg 89%
12:00 +20°C° 0.2 mm 3 mps 741 mmHg 88%
13:00 +21°C° 0.2 mm 3 mps 741 mmHg 86%
14:00 +21°C° 0.2 mm 3 mps 741 mmHg 85%
15:00 +21°C° 0.2 mm 3 mps 741 mmHg 83%
16:00 +21°C° 0.1 mm 3 mps 741 mmHg 81%
17:00 +22°C° 0.1 mm 3 mps 741 mmHg 78%
18:00 +22°C° 0.1 mm 3 mps 741 mmHg 76%
19:00 +21°C° 0 mm 3 mps 741 mmHg 81%
20:00 +19°C° 0 mm 2 mps 742 mmHg 86%
21:00 +18°C° 0 mm 2 mps 742 mmHg 91%
22:00 +18°C° 0 mm 2 mps 742 mmHg 92%
23:00 +18°C° 0 mm 2 mps 742 mmHg 93%

30 July, Friday

Time Temperature Precipitation Wind Pressure Humidity
00:00 +17°C° 0 mm 2 mps 742 mmHg 94%
01:00 +17°C° 0 mm 2 mps 742 mmHg 94%
02:00 +17°C° 0 mm 2 mps 742 mmHg 94%
03:00 +16°C° 0 mm 2 mps 743 mmHg 94%
04:00 +17°C° 0 mm 2 mps 743 mmHg 92%
05:00 +17°C° 0 mm 2 mps 743 mmHg 90%
06:00 +18°C° 0 mm 2 mps 743 mmHg 87%
07:00 +20°C° 0 mm 2 mps 744 mmHg 78%
08:00 +23°C° 0 mm 2 mps 744 mmHg 69%
09:00 +25°C° 0 mm 2 mps 744 mmHg 59%
10:00 +27°C° 0 mm 2 mps 744 mmHg 54%
11:00 +28°C° 0 mm 3 mps 744 mmHg 49%
12:00 +29°C° 0 mm 3 mps 744 mmHg 44%
13:00 +29°C° 0 mm 3 mps 744 mmHg 45%
14:00 +29°C° 0 mm 3 mps 744 mmHg 46%
15:00 +28°C° 0 mm 3 mps 744 mmHg 48%
16:00 +28°C° 0 mm 2 mps 744 mmHg 49%
17:00 +28°C° 0 mm 2 mps 744 mmHg 51%
18:00 +28°C° 0 mm 2 mps 744 mmHg 52%
19:00 +26°C° 0 mm 2 mps 744 mmHg 55%
20:00 +25°C° 0 mm 2 mps 744 mmHg 57%
21:00 +24°C° 0 mm 2 mps 744 mmHg 59%
22:00 +23°C° 0 mm 1 mps 744 mmHg 59%
23:00 +23°C° 0 mm 1 mps 744 mmHg 59%
Show more